Location: Bo?a Wola
(50.4192°N, 19.7966°E)
Time: 12:55:34
(UTC+00:00)

Cosmos 1934 Rocket - Pass Details

Date: 11 September 2024
Orbit: 938 x 997 km, 83.0° (Epoch: 08 October)

Event Time Altitude Azimuth Distance (km) Brightness Sun altitude
Rises 17:58:31 0° 261° (W) 3,614 8.2 -9.5°
Reaches altitude 10° 18:04:14 10° 304° (NW) 2,692 7.7 -10.4°
Maximum altitude 18:04:53 10° 310° (NW) 2,683 7.6 -10.4°
Drops below altitude 10° 18:05:32 10° 317° (NW) 2,697 7.4 -10.5°
Sets 18:11:22 0° 360° (N) 3,670 7.3 -11.4°
